Location: Lamy Ridge Observatory
(35.5010°N, 105.8759°W)
Time: 19:17:24
(UTC-06:00)

ACS3 Solar Sail - Pass Details

Date: 15 September 2024
Orbit: 963 x 1036 km, 97.4° (Epoch: 04 October)

Event Time Altitude Azimuth Distance (km) Brightness Sun altitude
Rises 18:59:29 0° 81° (E) 3,782 4.2 1.2°
Enters shadow 20:18:22 -43° 161° (SSE) 10,100 6.9 -14.7°
Maximum altitude 20:45:43 41° 71° (ENE) 1,459 2.3 -20.0°
